Regional Weather Roundup
Issued by NWS

Home | Current Version | Previous Version | Graphics & Text | Print | Product List | Glossary On
Versions: 1 2 3 4 5 6 7 8 9 10 11 12 13 14 15 16 17 18 19 20 21 22 23 24 25 26 27 28 29 30 31 32 33 34 35 36 37 38 39 40 41 42 43 44 45 46 47 48 49 50
000
ASUS43 KLOT 161909
RWRIL

ILLINOIS REGIONAL WEATHER ROUNDUP
NATIONAL WEATHER SERVICE CHICAGO/ROMEOVILLE IL
200 PM CDT MON OCT 16 2017

NOTE: "FAIR" INDICATES FEW OR NO CLOUDS BELOW 12,000 FEET WITH NO
SIGNIFICANT WEATHER AND/OR OBSTRUCTIONS TO VISIBILITY.

* THESE STATIONS ARE NOT UNDER NWS QUALITY CONTROL. THEY ALSO MAY NOT
  REPORT WEATHER SUCH AS PRECIPITATION OR FOG.

ILZ001-002-007-009-015-016-024-162000-
NORTHWEST ILLINOIS

CITY           SKY/WX    TMP DP  RH WIND       PRES   REMARKS
MOLINE         SUNNY     64  37  36 NW12      30.28F
STERLING*      SUNNY     63  35  35 W9          N/A
SAVANNA*       SUNNY     62  36  37 W8        30.27F
$$

ILZ003-004-008-010-011-017-018-162000-
NORTH CENTRAL ILLINOIS

CITY           SKY/WX    TMP DP  RH WIND       PRES   REMARKS
ROCKFORD       MOSUNNY   62  35  36 W9        30.27F
FREEPORT*      SUNNY     60  32  34 W12G17    30.28F
ROCHELLE*      SUNNY     61  38  42 W12G18    30.28F
DE KALB*       SUNNY     60  37  42 W10       30.27F
PERU*          SUNNY     61  34  36 W13       30.29F
$$

ILZ005-006-012>014-019>023-162000-
NORTHEAST ILLINOIS

CITY           SKY/WX    TMP DP  RH WIND       PRES   REMARKS
CHICAGO-OHARE  MOSUNNY   61  40  45 SW9       30.26F
CHICAGO-MIDWAY MOSUNNY   61  39  44 W12       30.26F
AURORA         SUNNY     61  36  39 W9        30.27F
LANSING*       MOSUNNY   61  42  49 W8        30.28F
JOLIET*        SUNNY     64  37  37 SW10      30.27F
WAUKEGAN       MOSUNNY   60  39  45 SW9       30.24F
DUPAGE AIRPORT SUNNY     61  39  44 W14G20    30.26F
KANKAKEE*      PTSUNNY   63  38  38 W10G20    30.30F
WHEELING       MOSUNNY   62  39  42 W9        30.26F
MORRIS*        SUNNY     63  38  40 W8G16     30.27F
ROMEOVILLE*    SUNNY     62  38  41 W9G17     30.27F
NORTHERLY ISL    N/A     60  35  39 SW7         N/A
$$

LMZ740>746-162000-
SOUTHERN LAKE MICHIGAN

STATION/POSITION SKY/WX   TEMP    WIND        PRES    VSBY  WAVE
                          AIR SEA DIR/SP/G                  HT/PER
                          (F)     (DEG/KT/KT) (MB)    (MI)  (FT/S)
SOUTHERN BUOY              54 62  260/  8/ 10 1026.0          2/ 7
WILMETTE HARBOR            58 58  260/  8/ 12   N/A           2/ 6
HARRISON CRIB              59     270/  9/ 10   N/A
BURNHAM HARBOR             60     250/  9/ 13   N/A
CALUMET HARBOR             60     220/  9/ 13 1024.3F
BURNS HARBOR               58     270/  7/ 11 1025.7F
MICHIGAN CITY              55     250/  8/  9   N/A
MICHIGAN CITY 6N           56 58  250/  6/ 10   N/A           3/ 6
ST. JOSEPH                 54 55  240/  8/ 12 1026.1F         3/ 4
$$

ILZ025>027-034>036-040-047-049-050-058-095>099-162000-
WEST-CENTRAL ILLINOIS

CITY           SKY/WX    TMP DP  RH WIND       PRES   REMARKS
QUINCY         SUNNY     65  35  33 W12       30.32F
GALESBURG*     SUNNY     63  38  39 W9        30.30F HAZE
MACOMB*        SUNNY     64  35  34 W10G17    30.33F
JACKSONVILLE*  SUNNY     64  34  32 NW6G16    30.32F
PITTSFIELD*    SUNNY     65  37  36 W6        30.34F
$$

ILZ028>032-037-038-041>044-048-051>054-059>061-162000-
CENTRAL ILLINOIS

CITY           SKY/WX    TMP DP  RH WIND       PRES   REMARKS
PONTIAC        SUNNY     64  36  36 W15       30.30F
BLOOMINGTON    SUNNY     62  37  39 W10       30.31F
DECATUR        SUNNY     63  36  36 W7        30.32F
PEORIA         SUNNY     64  36  35 W6        30.30F
LACON*         SUNNY     64  35  34 W8        30.28F
LINCOLN*       SUNNY     65  37  35 W5        30.30F
SPRINGFIELD    SUNNY     66  35  31 W14       30.32F
TAYLORVILLE    SUNNY     64  35  34 W8        30.33F
$$

ILZ033-039-045-046-055>057-062-063-162000-
EAST-CENTRAL ILLINOIS

CITY           SKY/WX    TMP DP  RH WIND       PRES   REMARKS
CHAMPAIGN      SUNNY     64  36  35 SW9       30.31F
DANVILLE*      MOSUNNY   62  35  37 W12       30.28F
RANTOUL*       SUNNY     64  40  42 W8G16     30.31F
MATTOON        MOSUNNY   62  40  44 NW8       30.32F
PARIS*         SUNNY     62  37  40 W9        30.33F
$$

ILZ079-100>102-162000-
SOUTHWEST ILLINOIS

CITY           SKY/WX    TMP DP  RH WIND       PRES   REMARKS
ALTON          SUNNY     63  39  42 W6        30.35
BELLEVILLE     SUNNY     65  34  32 W6        30.34F
CAHOKIA*       SUNNY     66  35  31 VRB3      30.35F
SPARTA*        SUNNY     63  35  36 CALM      30.37F
$$

ILZ064>066-069>071-074>076-080>082-084>086-088>090-092>094-162000-
SOUTH-CENTRAL ILLINOIS

CITY           SKY/WX    TMP DP  RH WIND       PRES   REMARKS
CARBONDALE     SUNNY     64  37  36 N7        30.36F
CAIRO*         SUNNY     64  38  38 NE10      30.34F HAZE
EFFINGHAM*     SUNNY     63  39  41 NW3       30.35F
MARION         SUNNY     63  55  77 NE7       30.36F
MT. VERNON     SUNNY     63  37  38 VRB5      30.35F
CENTRALIA*     SUNNY     64  37  36 NW6       30.34F
METROPOLIS*    SUNNY     64  36  35 NE7       30.34F
$$

ILZ067-068-072-073-078-083-087-091-162000-
SOUTHEAST ILLINOIS

CITY           SKY/WX    TMP DP  RH WIND       PRES   REMARKS
LAWRENCEVILLE  MOSUNNY  N/A N/A N/A N8        30.34F
FLORA*         SUNNY     63  38  39 CALM      30.35F
FAIRFIELD*     SUNNY     63  37  37 N5        30.34F
HARRISBURG*    SUNNY     63  38  40 N8        30.35F
ROBINSON*      SUNNY     62  36  38 NE5       30.34F
CARMI*         SUNNY     64  35  35 N10       30.34F
$$

ABBREVIATIONS USED IN REMARKS
   TC - TEMPERATURE IN CELSIUS
  WCI - WIND CHILL INDEX
   HX - HEAT INDEX
  VSB - VISIBILITY
$$





USA.gov is the U.S. government's official web portal to all federal, state and local government web resources and services.